Location: Astronomy Club of Akron Observatory
(40.9700°N, 81.5606°W)
Time: 19:21:12
(UTC-04:00)

ISS - Pass Details

Date: 18 July 2018
Orbit: 402 x 408 km, 51.6° (Epoch: 18 July)

Event Time Altitude Azimuth Distance (km) Brightness Sun altitude
Rises 22:25:54 0° 214° (SSW) 2,304 -0.1 -14.5°
Reaches altitude 10° 22:28:04 10° 205° (SSW) 1,450 -1.2 -14.8°
Enters shadow 22:30:45 35° 152° (SSE) 674 -3.3 -15.1°
Exits shadow 22:35:07 - 64° (ENE) 1,854 -0.6 -15.7°
Sets 22:36:18 0° 60° (ENE) 2,327 -0.1 -15.9°
